SCOUT X-4 R/B, 1739

Orbit data source: Space-Track

SCOUT X-4 R/B, 1739 is space debris in LEO originally from a launch on Fri, 19 Nov 1965 UTC launched from the Wallops Island (WLPIS). Debris objects in space refer to the collection of defunct objects orbiting the Earth. Examples of debris include non-operational satellites, rocket bodies, and fragments generated from explosions, collisions, or faulty payload assembly.

Loading next visibility...
Identifier
1739, 1965-093B
Orbit
LEO
Country
Flag of USUS
Related business
Manufacturer
ABL
Mission
Spacecraft
Bus & Motor
ALTAIR, Unknown motor
Mass
33 kg wet, 33 kg dry
Launch date (UTC)
1965-11-19 (60 years ago)
Launch vehicle
Unknown
Launch site
Wallops Island (WLPIS)
Object type
Payload
Rocket body
Debris
Shape & HBR
Unknown
Radar Cross Section
Medium (>0.1 m² and <1 m²)

Expand to show TLE details & history
Last TLE update: 12 hours ago

TLE from 12 hours ago
0 SCOUT X-4 R/B
1  1739U 65093B   25296.58703117  .00000882  00000-0  23185-3 0  9999
2  1739  59.7036 317.5397 0085612  43.5501 317.2260 14.54833065135893
Epoch: 2025-10-23T14:05Z
TLE epoch observation values (Epoch: 2025-10-23T14:05:19.493Z)
Latitude
-0.00002°
Longitude
73.96432°
Altitude
667.125 km
Speed
7.548 km/s
True Right ascension
21h 10m 09s
True Declination
0° 00' 00"
Sunlit
Object was in daylight at epoch
Visualization orbit readout
Latitude
Unknown
Longitude
Unknown
Altitude
Unknown
Speed
Unknown
Apparent Right ascension
Unknown
Apparent Declination
Unknown
Sunlit
N/A
Visualization observer readout
Local Sidereal Time
21:12:46
Azimuth
Unknown
Elevation
Unknown
Doppler factor
Unknown
Orbital elements
Apogee altitude
769.852 km
Perigee altitude
648.501 km
Semi-major axis
7,087.313 km
Eccentricity
0.00856
Inclination
59.7036°
RAAN
317.5397°
Arg. of periapsis
43.5501°
True anomaly
316.55451°
Mean anomaly
317.226°
Eccentric anomaly
316.89078°
Mean motion
3.63765 °/min
Orbital period
98.97 mins
BSTAR
0.00023185
Loading maneuver chart data...
Computing Atmospheric mass density...
Loading historical data...
Loading historical data...
Loading historical data...
Loading historical data...
Loading historical data...
Loading historical data...
Loading historical data...
Other satellites on launch #93 in the year 1965 (1965-11-19 UTC)

Documentation

Showing up to 5 results
|